Powrót do katalogu

STARLINK-36457

AktywnyŁącznośćVLEO
NORAD 67349·PAYLOAD·🇺🇸 United States

Wystrzelony Jan 9, 2026 z Cape Canaveral Space Force Station

Loading…

Następne Przeloty (najbliższe 24 godziny)

TLE

ŚwieżeSource: CelesTrak SupGP

Epoka: Sep 14, 2026, 23:16 UTC

1 67349C 26003R   26257.96993056  .00019382  00000+0  70182-3 0  2579
2 67349  42.9995 238.0731 0000760 260.7132  50.0593 15.27578123    11

Śledź STARLINK-36457 w czasie rzeczywistym z AllMySat

Download on the App Store